Station 46028 (LLNR 275) - CAPE SAN MARTIN - 55NM West NW of Morro Bay, CA Image indicating link to RSS feed of recent meteorological observations for station 46028


Conditions at 46028 as of
(2:30 am PDT)
0930 GMT on 05/29/2024:
     

Click on the graph icon in the table below to see a time series plot of the last five days of that observation.

5-day plot - Wind Direction Wind Direction (WDIR): NW ( 320 deg true )
5-day plot - Wind Speed Wind Speed (WSPD): 21.4 kts
5-day plot - Wind Gust Wind Gust (GST): 25.3 kts
5-day plot - Atmospheric Pressure Atmospheric Pressure (PRES):30.06 in
5-day plot - Air Temperature Air Temperature (ATMP): 54.9 °F
5-day plot - Dew Point Dew Point (DEWP): 51.1 °F
5-day plot - Wind Speed at 10 Meters Wind Speed at 10 meters (WSPD10M): 23.3 kts
5-day plot - Wind Speed at 20 Meters Wind Speed at 20 meters (WSPD20M): 23.3 kts
5-day plot -  Wind Speed, Wind Gust and Atmospheric Pressure Combined plot of Wind Speed, Gust, and Air Pressure
Supplemental Measurements
Highest 1-minute Wind Speed
Time (PDT)5-day plot - 1-Minute Wind Speed WSPD 5-day plot - 1-Minute Wind Direction WDIR
2:25 am 21.4 kts-
Previous observations
TIME
(PDT)
5-day plot - Wind Direction
WDIR
 
5-day plot - Wind Speed
WSPD
kts
5-day plot - Wind Gust
GST
kts
5-day plot - Wave Height
WVHT
ft
5-day plot - Dominant Wave Period
DPD
sec
5-day plot - Average Wave Period
APD
sec
5-day plot - Mean Wave Direction
MWD
 
5-day plot - Atmospheric Pressure
PRES
in
5-day plot - Pressure Tendency
PTDY
in
5-day plot - Air Temperature
ATMP
°F
5-day plot - Water Temperature
WTMP
°F
5-day plot - Dew Point
DEWP
°F
5-day plot - Salinity
SAL
psu
5-day plot - Visibility
VIS
nmi
5-day plot - Tide (above MLLW)
TIDE
ft
2024-05-29 02:20 am NW 21.4 27.2 8.2 96.1 NW30.05- 54.9- 51.1---
2024-05-29 02:10 amNNW 19.4 25.3 8.2-6.1 NW30.06- 55.0- 51.1---
2024-05-29 02:00 am NW 21.4 27.2----30.06-0.01 55.0- 51.1---
2024-05-29 01:50 am NW 21.4 27.2 7.5 86.1 NW30.06- 55.0- 51.1---
2024-05-29 01:40 am NW 23.3 27.2----30.06- 54.9- 50.9---
2024-05-29 01:30 am NW 23.3 27.2----30.06- 54.9- 50.9---
2024-05-29 01:20 am NW 21.4 29.1 7.9 85.8 NW30.06- 54.9- 50.9---
2024-05-29 01:10 am NW 23.3 27.2 7.9-5.8 NW30.06- 54.9- 50.9---
2024-05-29 01:00 am NW 21.4 29.1----30.06+0.00 54.9- 50.9---
2024-05-29 12:50 am NW 23.3 27.2 7.2 65.7 NW30.06- 54.9- 50.9---
2024-05-29 12:40 amNNW 21.4 27.2----30.07- 54.9- 50.9---
2024-05-29 12:30 amNNW 21.4 25.3----30.07- 54.9- 51.1---
2024-05-29 12:20 am NW 21.4 27.2 7.5 65.7 NW30.07- 55.0- 51.3---
2024-05-29 12:10 am NW 23.3 29.1----30.07- 55.0- 51.1---
2024-05-29 12:00 am NW 23.3 27.2----30.07+0.01 55.0- 51.3---
2024-05-28 11:50 pm NW 23.3 31.1 7.5 65.5 NW30.06- 55.0- 51.3---
2024-05-28 11:40 pm NW 23.3 29.1----30.06- 55.0- 51.4---
2024-05-28 11:30 pm NW 23.3 27.2----30.06- 55.0- 51.4---
2024-05-28 11:20 pm NW 21.4 27.2 7.2 75.6 NW30.07- 55.0- 51.4---
2024-05-28 11:10 pm NW 21.4 27.2----30.07- 55.0- 51.4---
2024-05-28 11:00 pm NW 23.3 27.2----30.07+0.02 55.0- 51.4---
2024-05-28 10:50 pm NW 23.3 29.1 7.5 85.8 NW30.07- 55.0- 51.6---
2024-05-28 10:40 pm NW 21.4 27.2----30.07- 55.0- 51.8---
2024-05-28 10:30 pm NW 21.4 27.2----30.08- 55.0- 52.0---
2024-05-28 10:20 pm NW 23.3 27.2 7.5 65.7 NW30.07- 55.0- 52.0---
2024-05-28 10:10 pmNNW 21.4 27.2 7.5-5.7 NW30.07- 54.9- 52.3---
2024-05-28 10:00 pm NW 21.4 27.2----30.07+0.02 54.7- 52.3---
2024-05-28 09:50 pm NW 21.4 27.2 7.5 85.5 NW30.07- 54.9- 52.3---
2024-05-28 09:40 pm NW 21.4 27.2----30.07- 54.9- 52.2---
2024-05-28 09:30 pm NW 23.3 29.1----30.06- 54.9- 52.2---
2024-05-28 09:20 pm NW 23.3 29.1 7.2 85.6 NW30.06- 54.9- 52.2---
2024-05-28 09:10 pm NW 23.3 29.1 7.2-5.6 NW30.06- 54.9- 52.2---
2024-05-28 09:00 pm NW 21.4 27.2----30.06+0.01 54.7- 52.2---
2024-05-28 08:50 pm NW 23.3 27.2 6.9 85.3 NW30.05- 54.7- 52.3---
2024-05-28 08:40 pm NW 21.4 25.3 6.9-5.3 NW30.05- 54.7- 52.3---
2024-05-28 08:30 pm NW 21.4 27.2----30.05- 54.7- 52.2---
2024-05-28 08:20 pm NW 23.3 29.1 6.9 65.3 NW30.05- 54.7- 52.2---
2024-05-28 08:10 pm NW 23.3 29.1 6.9-5.3 NW30.05- 54.9- 52.3---
2024-05-28 08:00 pmNNW 23.3 29.1----30.05+0.00 54.9- 52.2---
2024-05-28 07:50 pm NW 23.3 29.1 6.9 75.4 NW30.05- 54.9- 52.2---
2024-05-28 07:40 pm NW 23.3 27.2----30.05- 54.9- 52.3---
2024-05-28 07:30 pmNNW 23.3 27.2----30.05- 54.9- 52.3---
2024-05-28 07:20 pm NW 23.3 31.1 7.2 65.4 NW30.04- 55.0- 52.3---
2024-05-28 07:10 pm NW 25.3 29.1 7.2-5.4 NW30.04- 54.9- 52.2---
2024-05-28 07:00 pm NW 23.3 31.1----30.04-0.02 55.0- 52.3---
2024-05-28 06:50 pm NW 23.3 29.1 7.2 65.5 NW30.04- 55.0- 52.3---
2024-05-28 06:40 pmNNW 23.3 27.2 7.2-5.5 NW30.04- 55.0- 52.3---
2024-05-28 06:30 pm NW 21.4 27.2----30.04- 55.0- 52.3---
2024-05-28 06:20 pm NW 21.4 29.1 7.5 75.5 NW30.05- 55.0- 52.3---
2024-05-28 06:10 pm NW 23.3 27.2 7.5-5.5 NW30.04- 54.9- 52.2---
2024-05-28 06:00 pmNNW 23.3 29.1----30.04-0.03 54.9- 52.2---
2024-05-28 05:50 pm NW 23.3 29.1 7.2 75.5 NW30.04- 54.9- 52.2---
2024-05-28 05:40 pm NW 23.3 29.1----30.05- 55.0- 52.2---
2024-05-28 05:30 pm NW 23.3 29.1----30.05- 54.9- 52.0---
2024-05-28 05:20 pmNNW 23.3 29.1 6.9 65.5 NW30.05- 54.9- 52.2---
2024-05-28 05:10 pmNNW 21.4 27.2----30.05- 54.7- 52.0---
2024-05-28 05:00 pmNNW 21.4 27.2----30.05-0.03 54.7- 52.2---
2024-05-28 04:50 pmNNW 21.4 27.2 6.9 65.3 NW30.06- 54.7- 52.2---
2024-05-28 04:40 pmNNW 23.3 27.2----30.06- 54.7- 52.2---
2024-05-28 04:20 pmNNW 21.4 25.3 6.6 75.3 NW30.06- 54.5- 52.2---
2024-05-28 04:10 pm NW 21.4 25.3----30.06- 54.5- 52.0---
2024-05-28 04:00 pmNNW 19.4 25.3----30.06-0.02 54.5- 52.2---
2024-05-28 03:50 pmNNW 19.4 23.3 6.6 85.4 NW30.07- 54.5- 52.0---
2024-05-28 03:40 pmNNW 19.4 23.3----30.07- 54.7- 52.0---
2024-05-28 03:30 pm NW 19.4 25.3----30.07- 54.5- 51.8---
2024-05-28 03:20 pmNNW 19.4 25.3 6.6 55.4 NW30.07- 54.7- 51.8---
2024-05-28 03:10 pm NW 21.4 27.2 6.6-5.4 NW30.07- 54.5- 51.6---
2024-05-28 03:00 pm NW 21.4 27.2----30.07-0.01 54.5- 51.6---
2024-05-28 02:50 pm NW 21.4 29.1 6.9 75.3 NW30.07- 54.5- 51.6---
2024-05-28 02:40 pm NW 21.4 25.3----30.08- 54.5- 51.8---
2024-05-28 02:30 pm NW 21.4 25.3----30.08- 54.5- 51.8---
2024-05-28 02:20 pm NW 21.4 25.3 6.6 145.4 W30.08- 54.5- 51.8---
2024-05-28 02:10 pm NW 19.4 25.3 6.6-5.4 W30.08- 54.5- 51.8---
2024-05-28 02:00 pm NW 21.4 27.2----30.08+0.00 54.5- 51.8---
2024-05-28 01:50 pm NW 21.4 27.2 6.6 145.6 NW30.07- 54.5- 51.8---
2024-05-28 01:40 pm- 21.4 27.2------ 54.5- 52.0---
2024-05-28 01:30 pm NW 19.4 23.3----30.08- 54.5- 52.0---
2024-05-28 01:20 pmNNW 17.5 21.4 5.9 85.4 NW30.08- 54.5- 51.8---
2024-05-28 01:10 pm NW 17.5 21.4----30.08- 54.3- 51.8---
2024-05-28 01:00 pmNNW 17.5 21.4----30.08- 54.3- 51.6---
2024-05-28 12:50 pmNNW 17.5 21.4 6.2 85.5 NW30.09- 54.3- 51.6---
2024-05-28 12:40 pmNNW 17.5 21.4----30.09- 54.3- 51.8---
2024-05-28 12:30 pmNNW 17.5 21.4----30.08- 54.1- 51.6---
2024-05-28 12:20 pmNNW 15.5 21.4 5.6 75.2 NW30.08- 54.1- 51.6---
2024-05-28 12:10 pmNNW 17.5 21.4----30.08- 54.1- 51.6---
2024-05-28 12:00 pmNNW 17.5 21.4----30.08- 53.8- 51.3---
2024-05-28 11:50 amNNW 17.5 21.4 5.9 85.4 NW30.08- 53.6- 51.1---
2024-05-28 11:40 amNNW 17.5 21.4----30.08- 53.6- 51.1---
2024-05-28 11:30 amNNW 17.5 21.4----30.08- 53.6- 51.3---
2024-05-28 11:20 am- 17.5 21.4 5.6-5.6 NW-- 53.4- 51.1---
2024-05-28 11:10 amNNW 17.5 21.4----30.07- 53.4- 51.1---
2024-05-28 11:00 amNNW 15.5 19.4----30.07+0.01 53.4- 51.1---
2024-05-28 10:50 amNNW 15.5 19.4 5.6 75.4 NW30.07- 53.4- 50.9---
2024-05-28 10:40 amNNW 15.5 19.4----30.06- 53.4- 50.9---
2024-05-28 10:30 amNNW 15.5 19.4----30.06- 53.4- 50.9---
2024-05-28 10:20 amNNW 15.5 19.4 5.9 145.6 W30.06- 53.2- 50.7---
2024-05-28 10:10 amNNW 17.5 21.4 5.9-5.6 W30.06- 53.1- 50.7---
2024-05-28 10:00 amNNW 17.5 21.4----30.06+0.02 52.9- 50.5---
2024-05-28 09:50 amNNW 17.5 21.4 5.9 85.5 NW30.06- 52.7- 50.5---
2024-05-28 09:40 am NW 17.5 21.4----30.06- 52.5- 50.5---
2024-05-28 09:30 amNNW 17.5 21.4----30.06- 52.3- 50.5---
2024-05-28 09:20 amNNW 15.5 19.4 5.9 85.4 NW30.06- 52.5- 50.9---
2024-05-28 09:10 amNNW 15.5 21.4----30.06- 52.7- 51.1---
2024-05-28 09:00 amNNW 15.5 19.4----30.06+0.04 52.5- 51.1---
2024-05-28 08:50 amNNW 15.5 21.4 5.6 85.3 NW30.06- 52.5- 51.1---
2024-05-28 08:40 amNNW 15.5 21.4----30.06- 52.5- 50.9---
2024-05-28 08:30 amNNW 15.5 19.4----30.06- 52.7- 51.3---
2024-05-28 08:20 amNNW 15.5 19.4 5.9 65.3WNW30.06- 52.5- 50.9---
2024-05-28 08:10 amNNW 15.5 21.4 5.9-5.3WNW30.06- 52.7- 51.3---
2024-05-28 08:00 amNNW 15.5 21.4----30.06+0.03 52.7- 51.1---
2024-05-28 07:50 amNNW 15.5 19.4 5.2 85.3 NW30.06- 52.7- 51.1---
2024-05-28 07:40 amNNW 15.5 23.3----30.06- 52.9- 51.3---
2024-05-28 07:30 amNNW 15.5 19.4----30.06- 53.1- 51.4---
2024-05-28 07:20 amNNW 15.5 19.4 5.6 85.3 NW30.05- 53.1- 51.4---
2024-05-28 07:10 amNNW 17.5 21.4 5.6-5.3 NW30.06- 53.1- 51.4---
2024-05-28 07:00 amNNW 17.5 21.4----30.05+0.02 53.2- 51.4---
2024-05-28 06:50 amNNW 15.5 19.4 4.9 85.3WNW30.04- 53.4- 51.6---
2024-05-28 06:40 amNNW 15.5 19.4----30.03- 53.4- 51.4---
2024-05-28 06:30 amNNW 15.5 21.4----30.03- 53.4- 51.6---
2024-05-28 06:20 amNNW 15.5 21.4 5.6 85.5 NW30.03- 53.2- 51.4---
2024-05-28 06:10 amNNW 13.6 19.4 5.6-5.5 NW30.03- 53.4- 51.6---
2024-05-28 06:00 amNNW 13.6 17.5----30.03-0.01 53.6- 51.8---
2024-05-28 05:50 amNNW 15.5 21.4 5.6 85.8 NW30.03- 53.4- 51.4---
2024-05-28 05:40 amNNW 15.5 19.4----30.02- 53.6- 51.6---
2024-05-28 05:30 amNNW 15.5 19.4----30.02- 53.6- 51.6---
2024-05-28 05:20 amNNW 15.5 19.4 5.9 85.8 NW30.02- 53.6- 51.6---
2024-05-28 05:10 amNNW 15.5 19.4----30.03- 53.6- 51.6---
2024-05-28 05:00 amNNW 15.5 19.4----30.03-0.02 53.6- 51.6---
2024-05-28 04:50 amNNW 15.5 19.4 5.9 85.7 NW30.03- 53.6- 51.6---
2024-05-28 04:40 amNNW 13.6 17.5----30.03- 53.6- 51.6---
2024-05-28 04:30 amNNW 13.6 17.5----30.03- 53.6- 51.6---
2024-05-28 04:20 amNNW 13.6 19.4 5.9 85.9 NW30.03- 53.6- 51.6---
2024-05-28 04:10 amNNW 13.6 17.5----30.03- 53.6- 51.6---
2024-05-28 04:00 amNNW 15.5 19.4----30.03-0.03 53.6- 51.6---
2024-05-28 03:50 amNNW 13.6 17.5 5.9 85.7 NW30.03- 53.6- 51.6---
2024-05-28 03:40 amNNW 13.6 17.5----30.03- 53.6- 51.6---
2024-05-28 03:30 amNNW 15.5 21.4----30.03- 53.4- 51.4---
2024-05-28 03:20 amNNW 15.5 21.4 5.9 85.8 NW30.03- 53.4- 51.4---
2024-05-28 03:10 amNNW 15.5 19.4 5.9-5.8 NW30.03- 53.6- 51.6---
2024-05-28 03:00 amNNW 15.5 21.4----30.03-0.03 53.4- 51.6---
2024-05-28 02:50 amNNW 13.6 17.5 5.9 85.8 NW30.04- 53.4- 51.8---
2024-05-28 02:40 amNNW 13.6 15.5----30.04- 53.2- 51.6---
2024-05-28 02:30 amNNW 13.6 17.5----30.04- 53.2- 51.6---
2024-05-28 02:20 amNNW 15.5 19.4 6.6 86.1 NW30.04- 52.9- 51.6---
2024-05-28 02:10 amNNW 11.7 15.5----30.04- 52.7- 51.4---
2024-05-28 02:00 am N 13.6 15.5----30.04-0.02 52.7- 51.4---
2024-05-28 01:50 amNNW 13.6 17.5 5.9 86.0 NW30.04- 52.7- 51.3---

Detailed Wave Summary
for 46028 as of (2:10 am PDT)
0910 GMT on 05/29/2024:

These wave data are displayed in rounded times.

     

Click on the graph icon in the table below to see a time series plot of the last five days of that observation.

5-day plot - Significant Wave Height Significant Wave Height (WVHT): 8.2 ft
5-day plot - Swell Height Swell Height (SwH): 3.9 ft
5-day plot - Swell Period Swell Period (SwP): 9.1 sec
5-day plot - Swell Direction Swell Direction (SwD): NW
5-day plot - Wind Wave Height Wind Wave Height (WWH): 6.9 ft
5-day plot - Wind Wave Period Wind Wave Period (WWP): 7.7 sec
5-day plot - Wind Wave Direction Wind Wave Direction (WWD): NW
5-day plot - Wave Steepness Wave Steepness (STEEPNESS): AVERAGE
5-day plot - Average Wave Period Average Wave Period (APD): 6.1 sec
Previous observations
TIME
(PDT)
5-day plot - Wave Height
WVHT
ft
5-day plot - Swell Height
SwH
ft
5-day plot - Swell Period
SwP
sec
5-day plot - Swell Direction
SwD
 
5-day plot - Wind Wave Height
WWH
ft
5-day plot - Wind Wave Period
WWP
sec
5-day plot - Wind Wave Direction
WWD
 
5-day plot - Wave Steepness
STEEPNESS
 
5-day plot - Average Wave Period
APD
sec
2024-05-29 01:40 am 7.5 3.3 10.0 NW 6.6 8.3 NW STEEP 6.1
2024-05-29 01:10 am 7.9 3.3 10.0 NW 7.2 8.3 NW STEEP 5.8
2024-05-29 12:40 am 7.2 3.0 13.8 W 6.6 5.9 NWVERY_STEEP 5.7
2024-05-29 12:10 am 7.5 3.3 13.8WNW 6.9 5.9 NWVERY_STEEP 5.7
2024-05-28 11:40 pm 7.5 2.3 13.8 NW 7.2 6.2 NWVERY_STEEP 5.5
2024-05-28 11:10 pm 7.2 3.6 12.9WNW 6.2 6.7 NWVERY_STEEP 5.6
2024-05-28 10:40 pm 7.5 3.0 13.8 W 6.9 7.7 NW STEEP 5.8
2024-05-28 10:10 pm 7.5 3.0 13.8WNW 6.9 5.9 NWVERY_STEEP 5.7
2024-05-28 09:40 pm 7.5 3.0 13.8WNW 6.9 7.7 NW STEEP 5.5
2024-05-28 09:10 pm 7.2 2.6 13.8 W 6.9 7.7 NW STEEP 5.6
2024-05-28 08:40 pm 6.9 2.3 12.9WNW 6.6 7.7 NW STEEP 5.3
2024-05-28 08:10 pm 6.9 2.3 12.9 NW 6.6 5.6 NWVERY_STEEP 5.3
2024-05-28 07:40 pm 6.9 2.3 13.8WSW 6.2 7.1 NW STEEP 5.4
2024-05-28 07:10 pm 7.2 2.6 13.8 NW 6.6 6.2 NWVERY_STEEP 5.4
2024-05-28 06:40 pm 7.2 2.6 13.8WNW 6.9 6.2 NWVERY_STEEP 5.5
2024-05-28 06:10 pm 7.5 2.6 9.1 NW 6.9 6.7 NWVERY_STEEP 5.5
2024-05-28 05:40 pm 7.2 2.0 13.8 NW 6.9 6.7 NWVERY_STEEP 5.5
2024-05-28 05:10 pm 6.9 2.6 13.8 W 6.2 5.6 NWVERY_STEEP 5.5
2024-05-28 04:40 pm 6.9 2.3 13.8 NW 6.6 6.2 NWVERY_STEEP 5.3
2024-05-28 04:10 pm 6.6 2.0 13.8 SW 6.2 6.7 NW STEEP 5.3
2024-05-28 03:40 pm 6.6 2.3 13.8 NW 6.2 7.7 NW STEEP 5.4
2024-05-28 03:10 pm 6.6 2.3 13.8WNW 5.9 5.3 NWVERY_STEEP 5.4
2024-05-28 02:40 pm 6.9 2.3 10.0WNW 6.6 7.1 NW STEEP 5.3
2024-05-28 02:10 pm 6.6 2.6 13.8 W 5.9 6.2 NW AVERAGE 5.4
2024-05-28 01:40 pm 6.6 3.6 13.8 NW 5.2 7.1 NW AVERAGE 5.6
2024-05-28 01:10 pm 5.9 3.0 13.8WNW 5.2 7.7 NW STEEP 5.4
2024-05-28 12:40 pm 6.2 3.0 13.8WNW 5.6 7.7 NW STEEP 5.5
2024-05-28 12:10 pm 5.6 3.0 13.8 W 4.6 7.1 NW STEEP 5.2
2024-05-28 11:40 am 5.9 3.0 13.8WNW 5.2 7.7 NW STEEP 5.4
2024-05-28 11:10 am 5.6 3.3 14.8WNW 4.6 7.7 NW STEEP 5.6
2024-05-28 10:40 am 5.6 3.3 14.8WNW 4.6 7.1 NW STEEP 5.4
2024-05-28 10:10 am 5.9 3.9 13.8 W 4.6 6.7 NW AVERAGE 5.6
2024-05-28 09:40 am 5.9 2.6 14.8WNW 5.2 7.7 NW STEEP 5.5
2024-05-28 09:10 am 5.9 3.0 14.8 NW 4.9 7.7 NW STEEP 5.4
2024-05-28 08:40 am 5.6 3.0 14.8WNW 4.9 7.7 NW STEEP 5.3
2024-05-28 08:10 am 5.9 3.0 13.8WSW 4.9 5.9 WNWVERY_STEEP 5.3
2024-05-28 07:40 am 5.2 2.6 13.8 W 4.6 7.7 NW AVERAGE 5.3
2024-05-28 07:10 am 5.6 3.3 7.7 NW 4.6 5.6 NW STEEP 5.3
2024-05-28 06:40 am 4.9 2.6 14.8 W 4.3 7.7 WNW AVERAGE 5.3
2024-05-28 06:10 am 5.6 3.6 7.7 NW 3.9 6.2 NW AVERAGE 5.5
2024-05-28 05:40 am 5.6 3.6 7.7 NW 4.3 5.9 NW STEEP 5.8
2024-05-28 05:10 am 5.9 3.9 8.3 NW 4.6 5.3 NW AVERAGE 5.8
2024-05-28 04:40 am 5.9 3.9 8.3 NW 4.3 6.2 WNW AVERAGE 5.7
2024-05-28 04:10 am 5.9 4.3 8.3 NW 4.3 6.2 NW AVERAGE 5.9
2024-05-28 03:40 am 5.9 3.9 8.3 NW 4.6 6.7 WNW AVERAGE 5.7
2024-05-28 03:10 am 5.9 3.6 7.7 NW 4.6 6.7 NW STEEP 5.8
2024-05-28 02:40 am 5.9 4.3 7.7 NW 4.3 6.2 NW STEEP 5.8
2024-05-28 02:10 am 6.6 5.2 8.3 NW 3.6 5.9 NW AVERAGE 6.1

Plot of wave energy versus frequency (and period)